Home   Weather   USA   Chevak   Past weeks
Flag for USA

Past Weather in Chevak, Alaska, USA — Yesterday and Last 2 Weeks

Currently: 42 °F. Mostly cloudy. (Weather station: Cape Romanzoff Airways Facilities Sector, USA). See more current weather

Past Weather in Chevak — Graph

°F

Chevak Temperature Yesterday

Maximum temperature yesterday: 44 °F (at 5:55 pm)
Minimum temperature yesterday: 39 °F (at 6:32 am)
Average temperature yesterday: 42 °F

High & Low Weather Summary for the Past Weeks

 TemperatureHumidityPressure
High50 °F (Jul 12, 4:55 pm)100% (Jul 2, 5:34 pm)30.23 "Hg (Jul 2, 5:34 pm)
Low38 °F (Jul 13, 6:55 am)65% (Jul 2, 3:55 am)29.30 "Hg (Jul 12, 7:14 pm)
Average44 °F94%29.79 "Hg
* Reported Jul 2 2:55 am — Jul 17 2:55 am, Chevak. Weather by CustomWeather, © 2024

Note: Actual official high and low records may vary slightly from our data, if they occured in-between our weather recording intervals... More about our weather records

Chevak Weather History for the Previous 24 Hours

Scroll right to see more
 ConditionsComfort  
Time TempWeatherWind HumidityBarometerVisibility
2:55 am
Wed, Jul 17
42 °FMostly cloudy.3 mph88%29.90 "Hg10 mi
2:35 am41 °FMostly cloudy.5 mph93%29.91 "Hg10 mi
1:55 am42 °FOvercast.7 mph85%29.90 "Hg10 mi
12:55 am42 °FOvercast.14 mph87%29.90 "Hg10 mi
11:55 pm
Tue, Jul 16
42 °FPartly sunny.18 mph84%29.89 "Hg10 mi
11:35 pm43 °FPartly sunny.17 mph81%29.88 "Hg10 mi
11:05 pm43 °FScattered clouds.15 mph81%29.89 "Hg10 mi
10:55 pm42 °FScattered clouds.13 mph84%29.89 "Hg10 mi
9:55 pm43 °FPartly sunny.14 mph84%29.88 "Hg10 mi
8:55 pm43 °FPartly sunny.14 mph84%29.88 "Hg10 mi
7:55 pm44 °FPartly sunny.17 mph84%29.88 "Hg10 mi
6:55 pm44 °FPartly sunny.21 mph79%29.87 "Hg10 mi
5:55 pm44 °FBroken clouds.12 mph81%29.87 "Hg10 mi
4:55 pm43 °FPartly sunny.12 mph83%29.87 "Hg10 mi
4:05 pm43 °FPartly sunny.16 mph87%29.87 "Hg10 mi
3:55 pm44 °FBroken clouds.15 mph83%29.87 "Hg10 mi
3:35 pm43 °FBroken clouds.12 mph87%29.87 "Hg10 mi
3:20 pm43 °FPartly sunny.13 mph81%29.87 "Hg10 mi
3:05 pm43 °FBroken clouds.15 mph81%29.87 "Hg10 mi
1:55 pm42 °FLow clouds.13 mph90%29.87 "Hg10 mi
1:20 pm43 °FOvercast.13 mph87%29.87 "Hg10 mi
12:55 pm43 °FPartly sunny.10 mph87%29.86 "Hg10 mi
12:35 pm43 °FLow clouds.12 mph87%29.86 "Hg10 mi
11:55 am42 °FOvercast.12 mph88%29.85 "Hg10 mi
11:20 am41 °FOvercast.14 mph93%29.84 "Hg10 mi
10:55 am42 °FPartly sunny.14 mph89%29.84 "Hg10 mi
9:55 am41 °FLow clouds.15 mph89%29.84 "Hg10 mi
9:20 am41 °FLow clouds.14 mph93%29.83 "Hg10 mi
8:55 am41 °FLow clouds.14 mph92%29.82 "Hg10 mi
7:55 am41 °FLow clouds.13 mph93%29.82 "Hg10 mi
6:55 am40 °FLow clouds.10 mph94%29.82 "Hg10 mi
6:32 am39 °FSprinkles. Low clouds.13 mph100%29.81 "Hg6 mi
6:17 am41 °FDrizzle. Low clouds.12 mph93%29.81 "Hg3 mi
5:32 am41 °FLow clouds.9 mph87%29.81 "Hg10 mi
4:55 am40 °FLow clouds.10 mph93%29.81 "Hg10 mi
Weather by CustomWeather, © 2024

See weather overview